FENGYUN 1C DEB

Satellite information

Favourite Embed

Satellite Type and Status

DEBRISIN ORBIT

Key statistics

Satellite FENGYUN 1C DEB at a glance.

Uptime

9554

Days in orbit

Revolutions

≈ 14.2

Per day

Orbit

SSO

Sun Synchronous Orbit

Inclination

99.1

Latest

Satellite identification and parameters

Extended collection of information and parameters for FENGYUN 1C DEB.

Object identification

Identified? True

Debris? True

Object name: FENGYUN 1C DEB

International designator: 1999-025DJJ

Object number (NORAD): 33745

Object ID (CCSDS): 33745

Country: PEOPLES REPUBLIC OF CHINA (PRC)

Current information (Y/N): Y

RCS size: SMALL

Orbital parameters

Period: 101.321 minutes

Inclination: 99.1226 deg

SMA: 7199.326 km

Apoapsis: 860.407 km

Periapsis: 781.975 km

RAAN: 217.8597 deg

Eccentricy: 0.0054472

Argument of periapsis: 8.5129 deg

Mean anomaly: 351.6958 deg

Mean motion: 14.21232018 rev/day

Mean motion (dot): 0.00002241 rev/day2

B* drag term: 0.0010352 1/REarth

Two-line elements (TLE)

Creation date: July 5, 2025, 5:45 p.m.

Reference frame: TEME

Reference center: EARTH

Epoch: July 5, 2025, 12:47 a.m. UTC

TLE line 0: 0 FENGYUN 1C DEB

TLE line 1: 1 33745U 99025DJJ 25186.03330803 .00002241 00000-0 10352-2 0 9991

TLE line 2: 2 33745 99.1226 217.8597 0054472 8.5129 351.6958 14.21232018637185

Live tracking on map

Real-time ground track for satellite FENGYUN 1C DEB.

In-orbit conjunctions

A list of the most updated potential collisions computed for object FENGYUN 1C DEB.

Target Orbit TCA Probability of collision Miss distance Type
THOR BURNER 2 R/B SSO 2025-03-19 22:40:21 0.0003223525 358.0 (m) ROCKET BODY
CZ-6A DEB SSO 2024-12-21 12:15:09 0.0001245014 166.0 (m) DEBRIS

Associated space launch

Chinese polar orbiting meteorological satellite

FENGYUN 1C DEB was lifted into orbit during the mission ‘Long March 4B | Feng Yun 1C’, on board a Long March 4B space rocket.

The launch took place on May 10, 1999, 1:33 a.m. from Launch Complex 7.

For more information about the launch, click the button.

Launch to space Long March 4B | Feng Yun 1C
Long March 4B | Feng Yun 1C

Agency: N/A

Status: Launch Successful

Launch date: May 10, 1999, 1:33 a.m. UTC

Rocket: Long March 4B

Launch pad: Launch Complex 7

Location: Taiyuan Satellite Launch Center, People's Republic of China

...

Latest news about this satellite

There are no fresh news available about this satellite. Check back as we update our databases every day.


Newsletter sign-up

Weekly statistics, charts and insights to help you stay on top of the space industry.